Location: Aurora Center
(43.5271°N, 98.5894°W)
Time: 04:24:27
(UTC-05:00)

SR - Visible Passes

Search period start: 15 July 2024 00:00
Search period end: 25 July 2024 00:00
Orbit: 580 x 857 km, 66.7° (Epoch: 14 July)

Date Brightness Start Highest point End Pass type
(mag) Time Alt. Az. Time Alt. Az. Time Alt. Az.
16 Jul ? 04:43:11 10° SSE 04:46:44 21° ESE 04:50:08 10° ENE visible
17 Jul ? 05:31:06 10° SSW 05:35:47 85° ESE 05:40:11 10° NNE visible
18 Jul ? 04:39:25 12° S 04:43:25 37° ESE 04:47:28 10° NE visible
19 Jul ? 03:48:37 11° SE 03:51:11 17° ESE 03:54:01 10° ENE visible
19 Jul ? 05:28:04 10° SW 05:32:37 55° NW 05:36:55 10° NNE visible
20 Jul ? 04:36:59 20° SSW 04:40:08 66° ESE 04:44:28 10° NE visible
21 Jul ? 03:46:04 22° SSE 03:47:47 29° ESE 03:51:34 10° NE visible
21 Jul ? 05:25:22 10° WSW 05:29:30 33° NW 05:33:27 10° NNE visible
22 Jul ? 02:55:06 13° ESE 02:55:35 13° ESE 02:57:33 10° E visible
22 Jul ? 04:34:18 25° SW 04:36:53 71° WNW 04:41:15 10° NNE visible
23 Jul ? 03:43:18 40° SSE 03:44:25 50° ESE 03:48:40 10° NE visible
23 Jul ? 05:23:02 10° W 05:26:28 21° NW 05:29:47 10° N visible
24 Jul ? 02:52:14 22° ESE 02:52:14 22° ESE 02:55:32 10° ENE visible
24 Jul ? 04:31:26 24° WSW 04:33:42 41° NW 04:37:49 10° NNE visible
